Simultaneous Nadir Overpasses (SNOs) Predictions

Prediction of SNOs over PacNW region [( 10.00, 139.50) to ( 22.70, 165.60)] between NOAA-19 and NPP Satellites:

Table of predicted SNOs over PacNW region for the next 30.0 days since TLE Epoch: 5/2/2013
Index Date (NOAA-19) Time (NOAA-19) NOAA-19 Lat,Lon Date (NPP) Time (NPP) NPP Lat,Lon Distance(km) Time Diff (sec)
1 05/07/2013 15:19:59 22.64, 158.13 05/07/2013 15:23:15 23.58, 154.03 432.50 196
2 05/08/2013 02:36:28 22.66, 161.55 05/08/2013 02:36:00 22.06, 158.45 326.30 28
3 05/08/2013 15:12:38 10.02, 157.82 05/08/2013 15:09:02 6.61, 154.77 506.66 216
4 05/20/2013 03:46:38 13.08, 145.74 05/20/2013 03:49:23 12.18, 141.79 439.69 165
5 05/20/2013 14:43:24 10.02, 165.20 05/20/2013 14:42:55 9.39, 161.75 384.16 29
6 05/20/2013 16:23:17 17.72, 141.50 05/20/2013 16:21:52 18.37, 138.48 327.95 85
